Weather observations for the past three days for
Miami, Opa Locka Airport
Imperial (Metric)
Date Time (edt) Wind (mph) Vis. (mi.) Weather Sky Cond. Temperature (ºF) Relative Humidity Wind Chill (°F) Heat Index (°F) Pressure Precipitation (in)
Air Dwpt 6 hour altimeter (in) sea level (mb) 1 hr 3 hr 6 hr
Max. Min.
22 16:53 Calm 10.00 Rain FEW070 BKN110 79 73.9 85% 83 30.06 1018.0 0.01 0.08
22 15:53 Vrbl 5 10.00 Fair CLR 78.1 75 90% 81 30.06 1018.0
22 14:53 NW 6 10.00 A Few Clouds FEW041 FEW049 78.1 75 90% 81 30.07 1018.3 0.07
22 13:53 W 6 10.00 Thunderstorm Light Rain FEW036 BKN095 78.1 75 90% 81 30.09 1018.9 0.07 0.08
22 12:53 S 15 G 26 10.00 Thunderstorm BKN033 BKN050 OVC060 86 73.9 67% 94 30.06 1018.0 0.01
22 10:53 S 7 10.00 Partly Cloudy FEW070 SCT090 SCT110 88 78.1 73% 102 30.07 1018.3
22 09:53 S 7 10.00 Thunderstorm CLR 84.9 75.9 75% 94 30.07 1018.5
22 08:53 SW 8 10.00 Fair CLR 86 77 75% 97 30.05 1017.7
22 07:53 Calm 10.00 Fair CLR 80.1 78.1 94% 86 30.04 1017.3 0.06
22 06:53 Calm 10.00 Fair CLR 78.1 75.9 93% 81 30.03 1016.9
22 05:53 Calm 10.00 Fair CLR 0 0 0% 30.01 1016.5
22 04:53 Calm 10.00 Fair CLR 0 0 0% 30.01 1016.5 0.06
22 03:53 Calm 10.00 Fair CLR 0 0 0% 30.02 1016.8
22 02:53 Calm 10.00 Mostly Cloudy FEW055 SCT070 BKN085 78.1 73.9 87% 81 30.04 1017.2 0.06
22 01:53 SW 14 10.00 Thunderstorm Light Rain FEW022 BKN048 OVC060 78.1 73.9 86 78.1 87% 81 30.05 1017.7 0.01 0.01
22 00:53 Calm 10.00 A Few Clouds FEW075 84 77 80% 94 30.07 1018.3
21 23:53 S 3 10.00 Mostly Cloudy FEW031 BKN044 BKN070 82.9 75 77% 90 30.07 1018.4
21 22:53 Calm 10.00 Fair CLR 82.9 72 70% 88 30.06 1017.9
21 21:53 SE 9 10.00 Fair CLR 82.9 70 65% 87 30.05 1017.5
21 19:53 E 10 10.00 A Few Clouds FEW026 86 75.9 91 86 72% 96 30.03 1017.0
21 18:53 E 9 10.00 Fair CLR 88 75 66% 98 30 1016.0
21 17:53 E 9 10.00 Fair CLR 90 73.9 59% 99 30.01 1016.3
21 15:53 E 15 10.00 Partly Cloudy SCT025 SCT031 87.1 75.9 70% 98 30.03 1017.0
21 14:53 E 13 10.00 Thunderstorm in Vicinity SCT027 87.1 75 67% 97 30.05 1017.5
21 13:53 NE 12 10.00 Fair CLR 89.1 75.9 93 84.9 65% 100 30.06 1017.8
21 12:53 E 12 10.00 Fair CLR 89.1 75 63% 99 30.07 1018.2
21 11:53 SE 14 10.00 A Few Clouds FEW036 91.9 75.9 60% 104 30.07 1018.2
21 10:53 E 12 10.00 Partly Cloudy FEW030 SCT038 90 77 66% 103 30.06 1018.0
21 09:53 SE 9 10.00 Partly Cloudy FEW026 SCT055 90 77 66% 103 30.07 1018.2
21 08:53 E 9 10.00 Partly Cloudy SCT024 87.1 78.1 75% 100 30.06 1018.1
21 07:53 SE 3 10.00 Fair CLR 84.9 78.1 80% 97 30.06 1017.9
21 06:53 E 7 10.00 Fair CLR 82.9 75.9 79% 91 30.05 1017.6
21 05:53 E 8 10.00 Fair CLR 0 0 0% 30.04 1017.5
21 04:53 E 7 10.00 Fair CLR 0 0 0% 30.04 1017.5
21 03:53 E 8 10.00 A Few Clouds FEW019 0 0 0% 30.05 1017.8
21 02:53 E 3 10.00 A Few Clouds FEW055 0 0 0% 30.07 1018.5
21 01:53 E 5 10.00 A Few Clouds FEW080 82.9 78.1 86 82 85% 93 30.09 1019.1 0.01
21 00:53 E 9 10.00 Fair CLR 84.9 79 82% 98 30.11 1019.7
20 23:53 SE 6 10.00 Light Rain FEW023 SCT045 BKN075 82 75.9 82% 89 30.12 1020.0 0.01
20 22:53 E 6 10.00 Fair CLR 86 78.1 77% 98 30.12 1019.9
20 21:53 E 9 10.00 Fair CLR 86 78.1 77% 98 30.11 1019.5
20 20:53 E 12 10.00 Fair CLR 86 77 75% 97 30.1 1019.4
20 19:53 E 13 10.00 Fair CLR 86 75.9 93.9 86 72% 96 30.08 1018.5
20 18:53 E 10 10.00 Fair CLR 89.1 75 63% 99 30.06 1018.1
20 17:53 SE 13 10.00 Fair CLR 91 73 56% 100 30.08 1018.8
20 16:53 SE 9 G 23 10.00 Fair CLR 91.9 73 54% 101 30.1 1019.2
20 15:53 SE 12 10.00 A Few Clouds FEW025 93 73 52% 102 30.12 1019.9
20 14:53 SE 16 10.00 A Few Clouds FEW038 93.9 77 58% 108 30.11 1019.7
20 13:53 SE 13 G 21 10.00 Partly Cloudy SCT033 SCT048 91.9 78.1 93.9 82.9 64% 107 30.11 1019.5 0.05
20 12:53 SE 13 10.00 A Few Clouds FEW030 93 75.9 58% 106 30.12 1020.0
20 11:53 SE 15 G 22 10.00 A Few Clouds FEW031 91.9 77 62% 106 30.12 1020.0
20 10:53 SE 10 10.00 A Few Clouds FEW028 90 75.9 63% 102 30.12 1020.1 0.05
20 09:53 E 7 10.00 Mostly Cloudy FEW024 SCT040 BKN060 87.1 80.1 80% 103 30.11 1019.7 0.05
20 07:53 NE 3 10.00 Fair CLR 82.9 79 88% 94 30.09 1019.0
20 06:53 NE 3 10.00 Fair CLR 80.1 77 90% 86 30.08 1018.6
20 05:53 E 5 10.00 Fair CLR 0 0 0% 30.07 1018.5
20 04:53 Calm 10.00 Fair CLR 80.1 75.9 87% 85 30.09 1018.8
20 03:53 E 5 10.00 Fair CLR 79 75 88% 83 30.07 1018.5
20 02:53 NE 5 10.00 Fair CLR 79 75 88% 83 30.09 1018.8
20 01:53 N 6 10.00 Thunderstorm SCT042 79 72 86 77 79% 82 30.12 1020.1 0.06 0.06
20 00:53 S 7 10.00 Thunderstorm FEW042 SCT060 SCT095 84.9 78.1 80% 97 30.13 1020.4
19 23:53 SE 3 10.00 Partly Cloudy SCT022 84.9 78.1 80% 97 30.13 1020.3
19 22:53 SE 7 10.00 Fair CLR 84.9 77 77% 95 30.12 1020.0
19 21:53 SE 10 10.00 Fair CLR 86 77 75% 97 30.11 1019.6
19 20:53 SE 10 10.00 Fair CLR 86 75.9 72% 96 30.08 1018.5
19 19:53 SE 12 10.00 A Few Clouds FEW024 86 77 93.9 86 75% 97 30.05 1017.6
19 18:53 SE 10 10.00 Fair CLR 88 75.9 68% 99 30.05 1017.8
19 17:53 SE 14 10.00 Thunderstorm in Vicinity CLR 91 75.9 61% 103 30.04 1017.4
Date Time (edt) Wind (mph) Vis. (mi.) Weather Sky Cond. Air Dwpt Max. Min. Relative Humidity Wind Chill (°F) Heat Index (°F) altimeter (in) sea level (mb) 1 hr 3 hr 6 hr
6 hour
Temperature (ºF) Pressure Precipitation (in)